[[{"header":{"parameterUnit":"m.s-1","parameterCategory":1,"la1":30.2991,"la2":30.254,"lo1":-89.0895,"lo2":-89.0444,"dy":0.0017,"dx":0.0017,"nx":28,"ny":28,"refTime":"2025-12-22T03:00:00:Z","depth":0,"parameterNumber":2,"parameterNumberName":"U-component_of_WINDS"},"data":[0,0,0,0,0,0,0,0,0,0,0,0,0,0,0,0,0,0,0,0,0,0,0,0,0,0,0,0,0,0,0,0,0,0,0,0,0,0,0,0,0,0,0,0,0,0,0,0,0,0,0,0,0,0,0,0,0,0,-2.1611,-2.1611,0,-2.1593,-2.1592,-2.1592,-2.1538,-2.1537,-2.1536,-2.1535,-2.1518,-2.1519,-2.1519,0,0,0,0,0,0,0,0,0,0,0,0,0,-2.1602,-2.1602,-2.1611,-2.1611,-2.161,-2.1593,-2.1592,-2.1592,-2.1539,-2.1537,-2.1536,-2.1534,-2.1518,-2.1519,-2.1519,0,0,0,0,0,0,0,0,0,0,0,0,0,-2.1597,-2.1602,-2.1611,-2.1581,-2.1579,-2.1593,-2.1592,-2.1592,-2.1539,-2.1537,-2.1535,-2.1534,-2.1518,-2.1519,-2.1519,-2.1561,0,0,-2.1522,-2.1523,0,0,0,0,0,0,0,0,-2.1597,-2.1597,-2.1586,-2.1583,-2.158,-2.1566,-2.1583,-2.1582,-2.1539,-2.1554,-2.1535,-2.1533,-2.1536,-2.1535,-2.1535,-2.156,-2.1559,-2.1523,-2.1523,-2.1524,-2.1524,0,0,0,0,0,0,0,-2.1597,-2.1598,-2.1604,-2.1586,-2.1582,-2.157,-2.1567,-2.1582,-2.1555,-2.1553,-2.1549,-2.1547,-2.1534,-2.1535,-2.1535,-2.1559,-2.1523,-2.1523,-2.1524,-2.1524,-2.1618,-2.162,0,0,0,0,0,0,-2.1602,-2.1598,-2.1604,-2.1603,-2.1584,-2.1572,-2.1569,-2.1572,-2.1555,-2.155,-2.1549,-2.1545,-2.1534,-2.1534,-2.1534,-2.1581,-2.1524,-2.1524,-2.1525,-2.1616,-2.1619,-2.1621,0,0,0,0,0,0,-2.1602,-2.1603,-2.1605,-2.16,-2.1599,-2.1574,-2.1578,-2.1573,-2.1574,-2.1552,-2.1547,-2.1554,-2.1532,-2.1532,-2.1555,-2.158,-2.1525,-2.1526,-2.1614,-2.1617,-2.162,-2.1677,0,0,0,0,0,0,-2.1602,-2.1603,-2.1618,-2.16,-2.1599,-2.1625,-2.158,-2.1574,-2.1575,-2.157,-2.1556,-2.1552,-2.1531,-2.1554,-2.1556,-2.158,-2.1527,-2.1612,-2.1615,-2.1619,-2.1673,-2.1682,-2.1689,0,0,0,0,0,-2.1602,-2.1635,-2.1619,-2.162,-2.1617,-2.1627,-2.1626,-2.1601,-2.1578,-2.1593,-2.1579,-2.1552,-2.1577,-2.1556,-2.1558,-2.1584,-2.161,-2.1614,-2.1619,-2.1669,-2.168,-2.1689,0,0,0,0,0,0,-2.1656,-2.1632,-2.1614,-2.1643,-2.1637,-2.1618,-2.1636,-2.1613,-2.1615,-2.161,-2.1579,-2.1577,-2.1603,-2.1596,-2.1573,-2.1624,-2.1589,-2.1594,-2.1627,-2.1637,-2.1645,-2.1646,-2.1527,0,0,0,0,0,-2.1672,-2.1681,-2.166,-2.1687,-2.1685,-2.1661,-2.1665,-2.1646,-2.1639,-2.1637,-2.1624,-2.162,-2.1626,-2.1632,-2.1637,-2.1672,-2.1668,-2.1691,-2.1699,-2.1706,-2.171,-2.1729,-2.1739,-2.1635,-2.1635,-2.1635,0,0,-2.1704,-2.1692,-2.1699,-2.1698,-2.1691,-2.1702,-2.166,-2.1673,-2.1681,-2.1639,-2.1659,-2.165,-2.1643,-2.1672,-2.1684,-2.1667,-2.1738,-2.1711,-2.1717,-2.1717,-2.1734,-2.1744,-2.1753,-2.1638,-2.1637,-2.1637,0,0,-2.1767,-2.1759,-2.1781,-2.1776,-2.1767,-2.1751,-2.1756,-2.1741,-2.1733,-2.1753,-2.1722,-2.1731,-2.1744,-2.174,-2.174,-2.1804,-2.178,-2.1806,-2.1849,-2.1867,-2.1875,-2.1883,-2.1906,-2.1914,-2.1811,-2.1811,-2.1811,0,-2.1808,-2.1823,-2.1795,-2.1811,-2.1811,-2.1774,-2.1797,-2.1793,-2.1786,-2.1788,-2.1768,-2.1783,-2.1776,-2.1804,-2.182,-2.1821,-2.1827,-2.1807,-2.1876,-2.1883,-2.1889,-2.1911,-2.192,-2.1814,-2.1814,-2.1814,-2.1813,0,-2.1874,-2.1884,-2.1904,-2.1898,-2.1901,-2.192,-2.1896,-2.1903,-2.1884,-2.1871,-2.1892,-2.1882,-2.1884,-2.189,-2.1872,-2.1916,-2.1905,-2.1882,-2.1846,-2.1903,-2.1923,-2.1931,-2.1819,-2.1818,-2.1817,-2.1816,0,0,-2.197,-2.195,-2.1957,-2.1954,-2.1942,-2.195,-2.1969,-2.1971,-2.1977,-2.1974,-2.1989,-2.2001,-2.1979,-2.1979,-2.1961,-2.1977,-2.2029,-2.1951,-2.1951,-2.1966,-2.2077,-2.2095,-2.2105,-2.2014,-2.2015,-2.2016,-2.2078,0,-2.203,-2.2058,-2.2035,-2.2068,-2.2078,-2.2044,-2.206,-2.2055,-2.2043,-2.2051,-2.2038,-2.2047,-2.2018,-2.2017,-2.2032,-2.202,-2.2051,-2.2015,-2.2027,-2.2028,-2.2029,-2.2115,-2.2133,-2.2192,-2.2085,-2.2087,-2.2088,0,-2.2103,-2.2103,-2.2138,-2.2124,-2.2128,-2.2142,-2.2143,-2.215,-2.2145,-2.2135,-2.2136,-2.2113,-2.2131,-2.2098,-2.2122,-2.2098,-2.2102,-2.2097,-2.2099,-2.2098,-2.2061,-2.2117,-2.221,-2.2219,-2.21,-2.2099,-2.2098,0,-2.217,-2.2179,-2.2201,-2.2199,-2.2184,-2.2196,-2.219,-2.2182,-2.2186,-2.2187,-2.2189,-2.2192,-2.2194,-2.2198,-2.2177,-2.2155,-2.2205,-2.2169,-2.2198,-2.2198,-2.2209,-2.2208,-2.2304,-2.2213,-2.2213,-2.2213,-2.2212,0,-2.2239,-2.2261,-2.223,-2.2244,-2.2268,-2.2242,-2.2267,-2.2258,-2.2252,-2.2263,-2.2234,-2.2246,-2.2219,-2.2228,-2.2213,-2.2236,-2.2237,-2.223,-2.2226,-2.2232,-2.2233,-2.2234,-2.2229,-2.2215,-2.2214,-2.2214,-2.2213,0,-2.2317,-2.2297,-2.2318,-2.2303,-2.2299,-2.2318,-2.2305,-2.2317,-2.2304,-2.232,-2.2322,-2.2302,-2.2311,-2.2292,-2.2299,-2.2288,-2.2321,-2.231,-2.2322,-2.2319,-2.2348,-2.2346,-2.2447,-2.2459,-2.2361,-2.2362,-2.2363,0,-2.2361,-2.2378,-2.2364,-2.237,-2.2365,-2.2375,-2.2378,-2.2354,-2.2358,-2.2354,-2.2367,-2.2374,-2.2378,-2.2395,-2.2382,-2.2387,-2.2376,-2.2411,-2.2377,-2.2383,-2.2376,-2.2375,-2.2377,-2.2418,-2.2419,-2.242,-2.2421,0,-2.2443,-2.2433,-2.2438,-2.2441,-2.2445,-2.2446,-2.2445,-2.2452,-2.2426,-2.2433,-2.2442,-2.2445,-2.2453,-2.246,-2.2463,-2.2458,-2.2436,-2.2432,-2.2439,-2.2446,-2.2452,-2.2449,-2.2341,-2.243,-2.2429,-2.2428,-2.2428,-2.2428,-2.2505,-2.2519,-2.2511,-2.2519,-2.2515,-2.2515,-2.2526,-2.2515,-2.2522,-2.2525,-2.2511,-2.2524,-2.2519,-2.252,-2.2518,-2.2528,-2.2512,-2.2522,-2.2524,-2.2527,-2.2532,-2.2451,-2.2528,-2.2528,-2.2528,-2.2528,-2.2527,0,-2.2585,-2.2579,-2.2586,-2.2586,-2.2592,-2.257,-2.2568,-2.2575,-2.2586,-2.2583,-2.2588,-2.26,-2.2607,-2.2595,-2.2601,-2.2611,-2.2601,-2.2614,-2.2612,-2.2612,-2.2545,-2.2539,-2.2622,-2.2622,-2.2622,-2.2622,-2.2622,-2.2622,-2.2628,-2.2649,-2.2638,-2.2658,-2.2652,-2.2663,-2.2664,-2.2664,-2.2662,-2.2675,-2.2682,-2.2673,-2.2667,-2.2672,-2.2679,-2.2675,-2.2679,-2.2695,-2.2687,-2.2626,-2.2616,-2.2607,-2.2601,-2.2696,-2.2696,-2.2753,-2.2753,-2.2754]},{"header":{"parameterUnit":"m.s-1","parameterCategory":1,"la1":30.2991,"la2":30.254,"lo1":-89.0895,"lo2":-89.0444,"dy":0.0017,"dx":0.0017,"nx":28,"ny":28,"refTime":"2025-12-22T03:00:00:Z","depth":0,"parameterNumber":3,"parameterNumberName":"V-component_of_WINDS"},"data":[0,0,0,0,0,0,0,0,0,0,0,0,0,0,0,0,0,0,0,0,0,0,0,0,0,0,0,0,0,0,0,0,0,0,0,0,0,0,0,0,0,0,0,0,0,0,0,0,0,0,0,0,0,0,0,0,0,0,0.4644,0.4646,0,0.4813,0.4814,0.4816,0.4909,0.4909,0.4909,0.4909,0.5082,0.5086,0.5091,0,0,0,0,0,0,0,0,0,0,0,0,0,0.4403,0.4407,0.4644,0.4646,0.4648,0.4812,0.4815,0.4817,0.4909,0.4909,0.4909,0.491,0.5081,0.5086,0.5091,0,0,0,0,0,0,0,0,0,0,0,0,0,0.4533,0.4408,0.4644,0.4714,0.4722,0.4812,0.4815,0.4817,0.4909,0.4909,0.4909,0.491,0.5079,0.5085,0.5092,0.5125,0,0,0.5112,0.5115,0,0,0,0,0,0,0,0,0.4526,0.4542,0.4701,0.4709,0.4718,0.484,0.4793,0.4921,0.4909,0.4838,0.4909,0.491,0.5001,0.5014,0.5045,0.5133,0.5141,0.5112,0.5116,0.5119,0.5121,0,0,0,0,0,0,0,0.4517,0.4535,0.4711,0.4703,0.4714,0.4737,0.4756,0.4818,0.4915,0.4844,0.4851,0.487,0.5006,0.5039,0.505,0.5143,0.5112,0.5118,0.5122,0.5125,0.5269,0.5269,0,0,0,0,0,0,0.4496,0.4527,0.4705,0.4716,0.4621,0.4741,0.4762,0.48,0.4915,0.4933,0.4869,0.4873,0.5027,0.5042,0.5056,0.5105,0.5119,0.5125,0.5129,0.5269,0.5269,0.5269,0,0,0,0,0,0,0.4491,0.4511,0.4699,0.4624,0.4649,0.4745,0.4787,0.4804,0.4836,0.4934,0.4952,0.4884,0.5028,0.5047,0.5108,0.5112,0.5128,0.5134,0.5269,0.5269,0.5269,0.52,0,0,0,0,0,0,0.4483,0.4509,0.4522,0.4623,0.4653,0.4747,0.4787,0.4807,0.4847,0.4854,0.4953,0.497,0.503,0.5097,0.5114,0.5121,0.5139,0.5269,0.5269,0.5269,0.5202,0.5197,0.5193,0,0,0,0,0,0.4474,0.4495,0.4522,0.4543,0.4671,0.4747,0.4764,0.4832,0.4847,0.4862,0.4925,0.4967,0.5108,0.5103,0.5123,0.5131,0.5269,0.5269,0.5269,0.5204,0.5198,0.5193,0,0,0,0,0,0,0.4393,0.451,0.4541,0.4595,0.466,0.4762,0.4783,0.4823,0.4886,0.489,0.4972,0.4993,0.5047,0.5095,0.5087,0.517,0.5193,0.5197,0.5137,0.5132,0.5128,0.5116,0.5145,0,0,0,0,0,0.4381,0.4432,0.4532,0.457,0.4601,0.4686,0.4721,0.4768,0.4839,0.4867,0.4935,0.5002,0.5062,0.5099,0.516,0.5209,0.5233,0.5225,0.522,0.5216,0.5218,0.525,0.5248,0.5268,0.5268,0.5268,0,0,0.4357,0.4428,0.4455,0.4555,0.4611,0.4663,0.4709,0.4761,0.4801,0.4875,0.4938,0.4989,0.5069,0.5125,0.5153,0.5167,0.5218,0.5215,0.5211,0.5217,0.5249,0.5247,0.5245,0.5268,0.5268,0.5268,0,0,0.4341,0.4398,0.4438,0.4493,0.4577,0.4633,0.4642,0.4739,0.4776,0.4839,0.4897,0.4945,0.5045,0.5101,0.5142,0.5147,0.5189,0.5164,0.5141,0.5171,0.5169,0.5168,0.5172,0.5172,0.5167,0.5166,0.5166,0,0.4301,0.4381,0.4452,0.4502,0.4545,0.4615,0.4656,0.4706,0.4805,0.4834,0.4848,0.4977,0.5036,0.5106,0.5107,0.5138,0.5152,0.5154,0.5163,0.5163,0.5163,0.5168,0.5168,0.5163,0.5163,0.5164,0.5164,0,0.4329,0.4383,0.4405,0.4499,0.4545,0.4589,0.4668,0.4706,0.4749,0.4803,0.4868,0.4941,0.5018,0.5038,0.508,0.5114,0.5121,0.5148,0.5173,0.5157,0.5162,0.5164,0.5158,0.5159,0.516,0.5161,0,0,0.4266,0.44,0.4407,0.4451,0.4549,0.4593,0.4641,0.4717,0.4748,0.4814,0.4857,0.4941,0.4967,0.5014,0.5063,0.5089,0.509,0.5113,0.5117,0.5108,0.5134,0.5114,0.5114,0.5117,0.5118,0.5118,0.5128,0,0.4266,0.4356,0.4421,0.4486,0.4539,0.4605,0.4648,0.4713,0.4765,0.4817,0.4876,0.4934,0.4964,0.4993,0.5021,0.5084,0.5096,0.5084,0.5159,0.5161,0.5139,0.5117,0.5096,0.5102,0.513,0.513,0.5131,0,0.4277,0.4341,0.4411,0.4504,0.4529,0.4565,0.4641,0.4689,0.4764,0.4801,0.4853,0.4904,0.4959,0.4977,0.5054,0.5044,0.5078,0.5114,0.5116,0.5127,0.5146,0.5129,0.5105,0.5106,0.5134,0.5134,0.5134,0,0.4226,0.433,0.4386,0.4421,0.4531,0.4556,0.4603,0.4679,0.472,0.4785,0.4814,0.4884,0.4923,0.4976,0.5045,0.5052,0.5115,0.5139,0.5148,0.5146,0.516,0.5158,0.5142,0.5179,0.5179,0.5179,0.5179,0,0.422,0.426,0.4365,0.4399,0.4447,0.4523,0.4568,0.4621,0.4688,0.4734,0.4796,0.4838,0.4925,0.4978,0.5032,0.5088,0.5105,0.5136,0.5151,0.5132,0.5128,0.5157,0.5159,0.5179,0.5179,0.5179,0.5179,0,0.4172,0.4244,0.4309,0.4408,0.4434,0.4465,0.455,0.4586,0.4642,0.47,0.4718,0.4805,0.4871,0.4944,0.5034,0.507,0.5124,0.5143,0.5098,0.5107,0.5112,0.5111,0.5116,0.5121,0.5151,0.5151,0.5151,0,0.4164,0.4197,0.4299,0.4335,0.438,0.4436,0.4479,0.4554,0.4596,0.4685,0.4711,0.4781,0.4842,0.4943,0.5015,0.5084,0.5107,0.5104,0.5118,0.5098,0.5109,0.5107,0.5111,0.51,0.5099,0.5099,0.5098,0,0.4142,0.4176,0.4235,0.4307,0.4356,0.4416,0.4479,0.4504,0.4592,0.4636,0.4705,0.4751,0.4843,0.4913,0.4991,0.504,0.5084,0.5093,0.5099,0.5081,0.5055,0.5071,0.5089,0.5093,0.5093,0.5094,0.5094,0.5094,0.4116,0.4149,0.4226,0.429,0.4345,0.4402,0.4442,0.4502,0.456,0.4641,0.4682,0.475,0.4825,0.4935,0.4982,0.5037,0.5051,0.5059,0.5062,0.5063,0.5059,0.5044,0.5051,0.5051,0.5052,0.5052,0.5052,0,0.4099,0.4152,0.421,0.4296,0.4346,0.4383,0.4454,0.4494,0.4553,0.4619,0.4678,0.4756,0.4824,0.4901,0.4974,0.5003,0.5025,0.5019,0.5019,0.503,0.5041,0.503,0.5,0.5,0.5,0.5,0.5,0.5,0.4096,0.4154,0.4197,0.4283,0.4337,0.4404,0.4441,0.4495,0.4548,0.4633,0.469,0.474,0.4811,0.4889,0.4953,0.4974,0.4999,0.4988,0.5015,0.5024,0.5029,0.5033,0.5022,0.4992,0.4992,0.4999,0.4999,0.4999]}]]